Weather observations for the past three days for
Frelighsburg
Imperial (Metric)
Date Time (edt) Wind (mph) Vis. (mi.) Weather Sky Cond. Temperature (ºF) Relative Humidity Wind Chill (°F) Heat Index (°F) Pressure Precipitation (in)
Air Dwpt 6 hour altimeter (in) sea level (mb) 1 hr 3 hr 6 hr
Max. Min.
22 21:00 S 2 0.00 NULL NULL 65.8 64.2 95% 0 1014.5
22 20:00 S 1 0.00 NULL NULL 66.7 64 91% 0 1014.7
22 19:00 SE 1 0.00 NULL NULL 68.9 64 85% 0 1014.5
22 18:00 Calm 0.00 NULL NULL 70.5 64.4 81% 0 1014.4
22 17:00 SE 1 0.00 NULL NULL 71.4 63.1 75% 0 1015.1
22 16:00 NW 3 0.00 NULL NULL 68.9 63.9 84% 0 1015.8
22 15:00 NW 2 0.00 NULL NULL 70 65.7 86% 0 1016.0
22 14:00 N 2 0.00 NULL NULL 68.2 64.9 89% 0 1016.6
22 13:00 SW 1 0.00 NULL NULL 67.5 64.4 90% 0 1017.2
22 12:00 NW 1 0.00 NULL NULL 66 64.4 95% 0 1017.7
22 11:00 NW 1 0.00 NULL NULL 64.8 63.5 96% 0 1018.0
22 10:00 W 1 0.00 NULL NULL 65.8 64.2 95% 0 1018.2
22 09:00 S 1 0.00 NULL NULL 65.5 64.4 96% 0 1018.4
22 08:00 S 2 0.00 NULL NULL 64.4 63.3 96% 0 1018.4
22 07:00 S 2 0.00 NULL NULL 63.7 62.8 97% 0 1018.1
22 06:00 S 2 0.00 NULL NULL 63.3 62.2 96% 0 1018.3
22 05:00 SE 2 0.00 NULL NULL 63.1 61.5 94% 0 1018.0
22 04:00 Calm 0.00 NULL NULL 64.2 59.9 86% 0 1018.0
22 03:00 Calm 0.00 NULL NULL 65.1 59.7 83% 0 1018.0
22 02:00 SE 1 0.00 NULL NULL 65.8 60.3 82% 0 1018.5
22 01:00 SE 3 0.00 NULL NULL 66 60.1 81% 0 1018.8
22 00:00 SE 3 0.00 NULL NULL 66.4 58.5 76% 0 1019.5
21 23:00 SE 2 0.00 NULL NULL 66.9 57.7 73% 0 1019.6
21 22:00 NE 1 0.00 NULL NULL 65.5 60.3 83% 0 1020.0
21 21:00 NE 1 0.00 NULL NULL 66 60.6 83% 0 1020.3
21 20:00 N 5 0.00 NULL NULL 66.6 61 82% 0 1020.3
21 19:00 NE 2 0.00 NULL NULL 67.8 61.3 80% 0 1020.6
21 18:00 N 6 0.00 NULL NULL 68.7 61.5 78% 0 1021.2
21 17:00 N 5 0.00 NULL NULL 70.9 61.3 72% 0 1021.6
21 16:00 N 7 0.00 NULL NULL 71.1 59.4 67% 0 1021.7
21 15:00 N 5 0.00 NULL NULL 72 60.8 68% 0 1022.3
21 14:00 N 5 0.00 NULL NULL 70.3 61.9 75% 0 1022.9
21 13:00 N 5 0.00 NULL NULL 71.1 61.5 72% 0 1023.5
21 12:00 N 6 0.00 NULL NULL 72.3 59.9 65% 0 1023.7
21 11:00 N 1 0.00 NULL NULL 71.1 59.9 68% 0 1023.7
21 10:00 N 3 0.00 NULL NULL 69.1 62.8 80% 0 1023.6
21 09:00 NE 1 0.00 NULL NULL 66.9 61.5 83% 0 1023.8
21 08:00 N 5 0.00 NULL NULL 65.5 59.9 82% 0 1024.0
21 07:00 N 6 0.00 NULL NULL 65.3 60.4 84% 0 1023.7
21 06:00 N 3 0.00 NULL NULL 63.5 60.4 90% 0 1023.4
21 05:00 N 5 0.00 NULL NULL 64 61.5 92% 0 1023.3
21 04:00 N 2 0.00 NULL NULL 64.6 63 95% 0 1023.1
21 03:00 N 3 0.00 NULL NULL 65.8 63 90% 0 1022.8
21 02:00 NE 1 0.00 NULL NULL 67.3 64.4 91% 0 1022.9
21 01:00 N 3 0.00 NULL NULL 67.8 64.9 91% 0 1023.2
21 00:00 Calm 0.00 NULL NULL 69.8 69.4 99% 0 1023.6 0.02
20 23:00 S 1 0.00 NULL NULL 69.8 69.1 98% 0 1023.9 0.01
20 22:00 S 3 0.00 NULL NULL 69.8 69.3 98% 0 1023.5 0.01
20 21:00 S 3 0.00 NULL NULL 70 69.1 97% 0 1022.9
20 20:00 SE 3 0.00 NULL NULL 70.9 70.2 98% 0 1023.2 0.01
20 19:00 N 3 0.00 NULL NULL 71.4 70.7 98% 0 1023.3 0.02
20 18:00 SE 5 0.00 NULL NULL 71.6 71.1 98% 0 1022.0 0.04
20 16:00 N 13 G 23 0.00 NULL NULL 78.4 69.6 74% 81 0 1021.6
20 15:00 SW 3 0.00 NULL NULL 84.6 72 66% 90 0 1021.5
20 14:00 W 3 0.00 NULL NULL 85.5 71.2 63% 91 0 1022.4
20 13:00 W 5 0.00 NULL NULL 85.8 71.4 62% 92 0 1023.0
20 12:00 SW 5 0.00 NULL NULL 84.2 71.8 66% 90 0 1023.4
20 11:00 W 5 0.00 NULL NULL 84.2 73.4 70% 91 0 1023.4
20 10:00 SW 3 0.00 NULL NULL 82 72.9 74% 87 0 1023.7
20 09:00 SW 3 0.00 NULL NULL 79.7 72.9 80% 84 0 1023.6
20 08:00 S 1 0.00 NULL NULL 77.7 73.6 87% 80 0 1023.5
20 07:00 S 2 0.00 NULL NULL 75.9 72.1 88% 76 0 1023.6
20 06:00 S 2 0.00 NULL NULL 74.7 71.6 90% 0 1023.2
20 05:00 S 3 0.00 NULL NULL 73.2 70.7 92% 0 1022.7
20 04:00 S 3 0.00 NULL NULL 75.2 71.1 87% 75 0 1022.4
20 03:00 S 3 0.00 NULL NULL 77 72 85% 78 0 1022.5
20 02:00 S 3 0.00 NULL NULL 75.6 71.8 88% 75 0 1022.9
20 01:00 S 3 0.00 NULL NULL 78.3 72 81% 81 0 1022.6
20 00:00 S 3 0.00 NULL NULL 77.4 72.1 84% 79 0 1022.7
19 23:00 S 5 0.00 NULL NULL 76.6 72.1 86% 78 0 1022.7
Date Time (edt) Wind (mph) Vis. (mi.) Weather Sky Cond. Air Dwpt Max. Min. Relative Humidity Wind Chill (°F) Heat Index (°F) altimeter (in) sea level (mb) 1 hr 3 hr 6 hr
6 hour
Temperature (ºF) Pressure Precipitation (in)